Simultaneous Nadir Overpasses (SNOs) Predictions

Prediction of SNOs over PacNW region [( 10.00, 139.50) to ( 22.70, 165.60)] between AQUA and NPP Satellites:

Table of predicted SNOs over PacNW region for the next 30.0 days since TLE Epoch: 3/6/2020
Index Date (AQUA) Time (AQUA) AQUA Lat,Lon Date (NPP) Time (NPP) NPP Lat,Lon Distance(km) Time Diff (sec)
1 03/13/2020 15:10:07 22.63, 159.85 03/13/2020 15:10:41 23.22, 157.25 274.45 34
2 03/21/2020 15:59:28 22.61, 147.52 03/21/2020 16:01:27 23.24, 144.56 311.02 119
3 03/29/2020 15:09:55 22.62, 159.92 03/29/2020 15:10:45 23.20, 157.23 282.85 50
4 04/01/2020 03:31:42 22.70, 147.60 04/01/2020 03:28:12 26.88, 144.67 551.08 210




NCC Satellite Simultaneous Nadir Overpasses (SNOs) Prediction Service
